Find Starlink 37340

NORAD ID: 68709 Int'l Des: 2026-081 Owner: SPXS Country: US Constellation: starlink operational
LEOCIRCULAR

リアルタイム位置

3D地球を読み込み中...

Starlink 37340について

説明を読み込み中...

次回通過

Passes for default location (London). Set your location on the main map for personalized predictions.

高度履歴

Loading altitude history...

軌道要素

1 68709C 26081K 26105.38243056 .00617190 00000+0 79802-3 0 1053
2 68709 53.1628 238.0039 0007472 302.4098 8.6756 16.06027746 10
Epoch: Apr 15, 2026 • Age: 27 hours

現在のステータス

高度 265.6 km
速度 7.75 km/s
衛星直下点 -40.03°S, 70.44°E
打ち上げ日 Apr 14, 2026
運用期間 2 days
タイプ internet

技術仕様

分類 Payload
質量 575.00 kg
乾燥質量 530.00 kg
総質量 575.00 kg
長さ 0.30 m
直径 4.10 m
スパン 29.00 m
形状 Box + pan
製造者 SPXS
バスタイプ Starlink V2MO
フェーズステータス In Orbit
所有者/国 SPXS/US

Most Searched